Regional Weather Roundup
Issued by NWS

Home | Current Version | Previous Version | Text Only | Print | Product List | Glossary Off
Versions: 1 2 3 4 5 6 7 8 9 10 11 12 13 14 15 16 17 18 19 20 21 22 23 24 25 26 27 28

000
ASUS45 KTFX 301510
RWRMT
MONTANA REGIONAL WEATHER ROUNDUP
NATIONAL WEATHER SERVICE GREAT FALLS MT
900 AM MDT FRI SEP 30 2016

NOTE: "FAIR" INDICATES FEW OR NO CLOUDS BELOW 12000 FEET WITH NO
SIGNIFICANT WEATHER AND/OR OBSTRUCTIONS TO VISIBILITY.

MTZ001>007-043-301600-
WEST OF THE DIVIDE

CITY           SKY/WX    TMP DP  RH WIND       PRES   REMARKS
KALISPELL      MOSUNNY   55  51  86 CALM      30.04S
MISSOULA       SUNNY     52  45  77 N6        30.06S
BUTTE          CLOUDY    45  42  89 CALM      30.20R
MULLAN PASS    PTSUNNY   53  41  63 SE8       30.12S
ANACONDA         N/A     61  43  51 SE12      30.14S
DEER LODGE       N/A     54  45  71 CALM      30.17R
EUREKA           N/A     55  52  88 CALM      30.04R
HAMILTON         N/A     55  45  67 CALM      30.07R
LIBBY            N/A     52  52 100 CALM      30.04R
PLAINS           N/A     51  46  83 CALM      30.05S
RONAN            N/A     53  49  86 CALM      30.10R
$$

MTZ008-052>055-301600-
SOUTHWEST MONTANA

CITY           SKY/WX    TMP DP  RH WIND       PRES   REMARKS
BOZEMAN        SUNNY     50  45  83 CALM      30.16R
DILLON         CLOUDY    56  42  59 S10       30.18F
W YELLOWSTONE  CLOUDY    39  37  93 CALM      30.32S FOG
ENNIS          SUNNY     54  43  66 S10       30.25R
THREE FORKS      N/A     51  31  46 CALM      30.12S
TWIN BRIDGES     N/A     51  41  69 SE6       30.15S
$$

MTZ009-010-012-014-046-048-049-054-301600-
EAST SLOPES AND CENTRAL MONTANA

CITY           SKY/WX    TMP DP  RH WIND       PRES   REMARKS
CUT BANK       PTSUNNY   50  47  89 W6        30.05R
GREAT FALLS    MOSUNNY   62  46  55 SW10      30.03R
MALMSTROM AFB  PTSUNNY   57  47  67 SW9       30.03R
HELENA         CLOUDY    54  44  69 CALM      30.11R
AUGUSTA        PTSUNNY   55  45  69 SE1       30.06S
BOWMANS CRNR     N/A     58  45  63 S15       30.05S
CHOTEAU          N/A     52  50  93 NW6       30.07R
CONRAD           N/A     46  46 100 CALM      30.06R
FAIRFIELD      PTSUNNY   58  47  67 W7        30.03R
POWER            N/A     48  46  94 NW6       30.03R
RAYNESFORD     PTSUNNY   67  43  41 S17G25    30.04S
$$

MTZ011-013-016-021-045-047-050-051-301600-
NORTH CENTRAL MONTANA

CITY           SKY/WX    TMP DP  RH WIND       PRES   REMARKS
HAVRE          SUNNY     50  49  96 SW8       30.02R
LEWISTOWN      SUNNY     56  47  71 SE5       30.07R
N BAR RANCH    CLOUDY    63  45  51 W7        30.08S
CHINOOK          N/A     50  50 100 W9        29.99S
DENTON           N/A     53  49  85 S7        30.01R
GEYSER         PTSUNNY   55  45  69 SE1       30.06S
GRASS RANGE    PTSUNNY   61  46  57 SW15      30.01R
JUDITH GAP       N/A     62  47  58 NW5       30.08S
ROY              N/A     60  53  75 MISG      30.00R
STANFORD         N/A     59  49  67 SW2       30.06S
WINIFRED         N/A     61  51  70 MISG      30.03R
$$

MTZ017>020-022>027-061-062-301600-
NORTHEAST MONTANA

CITY           SKY/WX    TMP DP  RH WIND       PRES   REMARKS
GLASGOW        CLOUDY    59  47  64 E8        29.96S
JORDAN           N/A     56  53  90 CALM      29.96F
SIDNEY         PTSUNNY   57  49  74 E5        30.01R
WOLF POINT     PTSUNNY   62  51  67 E7        29.98S
PLENTYWOOD       N/A     55  46  71 SE7       30.00S
POPLAR           N/A     61  48  63 E6        29.98S
SCOBEY           N/A     55  42  61 CALM      29.98R
$$

MTZ028>42-056>058-301600-
SOUTHCENTRAL AND SOUTHEAST MONTANA

CITY           SKY/WX    TMP DP  RH WIND       PRES   REMARKS
BAKER          CLOUDY    58  47  66 SE8       30.05R
BILLINGS       CLOUDY    61  50  67 SW9       30.06R
LIVINGSTON     SUNNY     63  43  48 W15G26    30.12S
MILES CITY     SUNNY     64  52  64 SE5       30.00R
BIG TIMBER     SUNNY     61  45  55 W20G25    30.12R
EKALAKA          N/A     62  47  58 SE7       30.03S
FORSYTH          N/A     68  55  64 CALM      29.99S
HARLOWTON        N/A     57  45  65 W13       30.07S
LAUREL           N/A     61  47  59 CALM      30.05R
ROUNDUP          N/A     59  45  59 S12       29.95R
$$

REGIONAL REPORTS...DAKOTAS

CITY           SKY/WX    TMP DP  RH WIND       PRES   REMARKS
WILLISTON      MOSUNNY   59  47  64 VRB3      30.02R
MINOT          MOSUNNY   56  47  71 SE10      30.10S
DICKINSON      CLOUDY    55  43  63 S15       30.05S
BEACH            N/A     57  46  67 S16       30.05S
CROSBY           N/A     55  48  76 E7        30.05R
WATFORD CITY   LGT RAIN  55  48  76 SE14G20   30.05R
BISMARCK       PTSUNNY   56  47  71 S16       30.16F
GRAND FORKS    MOSUNNY   54  49  83 S13       30.31F
FARGO          MOSUNNY   57  50  77 SE13G21   30.34R
BUFFALO SD       N/A     59  44  57 SE9       30.01R
RAPID CITY     PTSUNNY   57  44  62 S12       30.08F
$$

REGIONAL REPORTS...WYOMING/IDAHO/WASHINGTON

CITY           SKY/WX    TMP DP  RH WIND       PRES   REMARKS
GILLETTE       MOSUNNY   63  50  62 SW16      30.08F
SHERIDAN       SUNNY     60  50  69 W3        30.07S
BUFFALO WY     SUNNY     69  43  38 W5        30.13R
CODY           SUNNY     64  43  45 W16G24    30.17R
YELLOWSTONE LA   N/A     39  38  96 CALM      30.38R
IDAHO FALLS    MOSUNNY   50  46  86 N6        30.22R
SALMON         SUNNY     48  45  87 N6        30.17R
BOISE          SUNNY     66  43  43 S8        30.05R
SPOKANE        PTSUNNY   56  47  71 SE3       29.99R
$$

REGIONAL REPORTS...ALBERTA

CITY           SKY/WX    TMP DP  RH WIND       PRES   REMARKS
EDMONTON       CLOUDY    46  45  93 NE9       30.06F
CALGARY        CLOUDY    46  43  87 E6        30.02R
LETHBRIDGE     PTSUNNY   46  46 100 S10G17    30.00F
MEDICINE HAT   FOG       45  45 100 SW6       29.99R VSB 5/8
WATERTON GATE    N/A     52  45  76 SW12G18     N/A
CARDSTON         N/A     55  46  71 W3          N/A
MILK RIVER       N/A     46  46 100 NW3         N/A
$$

REGIONAL REPORTS...SASKATCHEWAN

CITY           SKY/WX    TMP DP  RH WIND       PRES   REMARKS
SWIFT CURRENT  SUNNY     52  48  87 SW3       29.97R
REGINA         PTSUNNY   52  46  82 SE16      30.02S
SASKATOON      MOSUNNY   52  48  87 VRB2      30.01R
CYPRESS HILLS    N/A     63  50  63 CALM        N/A
VAL MARIE        N/A     57  50  77 E1          N/A
ROCKGLEN         N/A     59  46  63 S12         N/A
ASSINIBOIA       N/A     48  46  93 N5          N/A
$$




USA.gov is the U.S. government's official web portal to all federal, state and local government web resources and services.